CJT812 CYHM-KMIA

Flight info

Callsign CJT812
Flight time N/A
Altitude 35000
Route CYHM1/06 ERI DCT SBV DCT RDU/N0461F340 DCT ANNVA/N0460F350 DCT DUUNK/N0460F360 Y313 HOAGG BNFSH2
Aircraft B763/H-SDE3FGHIM3RWXY/LB1

Departure

Time 2026-04-26 21:24
Airport John C. Munro Hamilton International Airport (CYHM)

Arrival

Time N/A
Airport Miami International Airport (KMIA)
Time Latitude Longitude Altitude Speed Heading
2026-04-26 20:52 43.16354 -79.92345 766 ft 0 kts 154°
2026-04-26 21:01 43.16355 -79.92345 766 ft 0 kts 154°
2026-04-26 21:07 43.16357 -79.92346 766 ft 5 kts 154°
2026-04-26 21:08 43.16374 -79.92357 766 ft 2 kts 159°
2026-04-26 21:08 43.16389 -79.92364 766 ft 2 kts 166°
2026-04-26 21:08 43.16402 -79.92368 766 ft 2 kts 171°
2026-04-26 21:08 43.16418 -79.92370 766 ft 2 kts 177°
2026-04-26 21:09 43.16433 -79.92371 766 ft 2 kts 183°
2026-04-26 21:09 43.16448 -79.92368 766 ft 2 kts 188°
2026-04-26 21:09 43.16462 -79.92364 766 ft 2 kts 194°
2026-04-26 21:09 43.16476 -79.92359 766 ft 2 kts 200°
2026-04-26 21:10 43.16482 -79.92355 766 ft 0 kts 202°
2026-04-26 21:10 43.16483 -79.92355 766 ft 0 kts 202°
2026-04-26 21:10 43.16482 -79.92355 766 ft 0 kts 202°
2026-04-26 21:13 43.16481 -79.92356 766 ft 0 kts 201°
2026-04-26 21:13 43.16479 -79.92358 766 ft 0 kts 206°
2026-04-26 21:14 43.16475 -79.92364 766 ft 0 kts 237°
2026-04-26 21:14 43.16475 -79.92375 766 ft 2 kts 271°
2026-04-26 21:14 43.16479 -79.92426 767 ft 7 kts 281°
2026-04-26 21:14 43.16483 -79.92451 768 ft 1 kts 285°
2026-04-26 21:15 43.16492 -79.92477 768 ft 4 kts 304°
2026-04-26 21:15 43.16524 -79.92499 769 ft 6 kts 354°
2026-04-26 21:15 43.16584 -79.92499 769 ft 10 kts 349°
2026-04-26 21:15 43.16659 -79.92545 770 ft 13 kts 330°
2026-04-26 21:16 43.16748 -79.92613 771 ft 15 kts 330°
2026-04-26 21:16 43.16838 -79.92687 773 ft 14 kts 326°
2026-04-26 21:16 43.16921 -79.92755 774 ft 13 kts 330°
2026-04-26 21:16 43.17001 -79.92814 775 ft 12 kts 330°
2026-04-26 21:17 43.17076 -79.92872 775 ft 12 kts 329°
2026-04-26 21:17 43.17152 -79.92931 775 ft 12 kts 329°
2026-04-26 21:17 43.17229 -79.92989 775 ft 12 kts 332°
2026-04-26 21:17 43.17305 -79.93047 776 ft 12 kts 330°
2026-04-26 21:18 43.17374 -79.93102 777 ft 11 kts 329°
2026-04-26 21:18 43.17439 -79.93154 778 ft 10 kts 330°
2026-04-26 21:18 43.17503 -79.93204 779 ft 10 kts 329°
2026-04-26 21:18 43.17563 -79.93268 779 ft 11 kts 312°
2026-04-26 21:19 43.17609 -79.93353 779 ft 11 kts 294°
2026-04-26 21:19 43.17639 -79.93458 779 ft 11 kts 291°
2026-04-26 21:19 43.17665 -79.93567 779 ft 12 kts 287°
2026-04-26 21:19 43.17690 -79.93688 778 ft 14 kts 288°
2026-04-26 21:20 43.17726 -79.93831 776 ft 17 kts 288°
2026-04-26 21:20 43.17764 -79.93997 774 ft 19 kts 288°
2026-04-26 21:20 43.17809 -79.94198 771 ft 24 kts 287°
2026-04-26 21:20 43.17863 -79.94437 769 ft 27 kts 287°
2026-04-26 21:21 43.17921 -79.94695 767 ft 29 kts 287°
2026-04-26 21:21 43.17979 -79.94957 766 ft 22 kts 287°
2026-04-26 21:21 43.18005 -79.95130 766 ft 15 kts 263°
2026-04-26 21:21 43.18017 -79.95237 765 ft 8 kts 335°
2026-04-26 21:22 43.18037 -79.95207 766 ft 2 kts 90°
2026-04-26 21:22 43.18032 -79.95173 766 ft 4 kts 106°
2026-04-26 21:22 43.18015 -79.95102 766 ft 10 kts 107°
2026-04-26 21:23 43.17859 -79.94422 769 ft 73 kts 107°
2026-04-26 21:23 43.17681 -79.93635 779 ft 102 kts 108°
2026-04-26 21:23 43.17416 -79.92475 764 ft 151 kts 107°
2026-04-26 21:23 43.17073 -79.90902 820 ft 185 kts 105°
2026-04-26 21:24 43.16724 -79.89167 1179 ft 194 kts 107°
2026-04-26 21:24 43.16249 -79.87395 1585 ft 204 kts 113°
2026-04-26 21:24 43.15650 -79.85548 1923 ft 227 kts 116°
2026-04-26 21:24 43.14861 -79.83578 2449 ft 243 kts 129°
2026-04-26 21:25 43.13527 -79.82218 3077 ft 245 kts 164°
2026-04-26 21:25 43.11901 -79.81989 3584 ft 233 kts 191°
2026-04-26 21:25 43.10386 -79.82723 4015 ft 232 kts 205°
2026-04-26 21:25 43.08909 -79.83585 4386 ft 234 kts 201°
2026-04-26 21:26 43.07375 -79.84351 4773 ft 239 kts 199°
2026-04-26 21:26 43.05781 -79.85098 5163 ft 245 kts 198°
2026-04-26 21:26 43.04151 -79.85834 5550 ft 250 kts 198°
2026-04-26 21:26 43.02483 -79.86572 5937 ft 256 kts 198°
2026-04-26 21:27 43.00771 -79.87320 6325 ft 263 kts 198°
2026-04-26 21:27 42.99009 -79.88084 6735 ft 268 kts 198°
2026-04-26 21:27 42.97216 -79.88859 7171 ft 273 kts 198°
2026-04-26 21:27 42.95402 -79.89641 7603 ft 277 kts 198°
2026-04-26 21:28 42.93554 -79.90436 8031 ft 280 kts 198°
2026-04-26 21:28 42.91707 -79.91229 8454 ft 281 kts 198°
2026-04-26 21:28 42.89846 -79.92029 8879 ft 283 kts 198°
2026-04-26 21:28 42.87957 -79.92840 9307 ft 285 kts 198°
2026-04-26 21:29 42.86085 -79.93642 9729 ft 287 kts 198°
2026-04-26 21:29 42.84187 -79.94455 10154 ft 288 kts 198°
2026-04-26 21:29 42.82254 -79.95283 10584 ft 290 kts 198°
2026-04-26 21:29 42.80353 -79.96097 11004 ft 292 kts 198°
2026-04-26 21:30 42.78396 -79.96933 11434 ft 294 kts 198°
2026-04-26 21:30 42.76446 -79.97767 11860 ft 296 kts 198°
2026-04-26 21:30 42.74489 -79.98602 12244 ft 300 kts 198°
2026-04-26 21:30 42.72476 -79.99462 12628 ft 304 kts 198°
2026-04-26 21:31 42.70480 -80.00314 13003 ft 307 kts 198°
2026-04-26 21:31 42.68424 -80.01190 13385 ft 311 kts 198°
2026-04-26 21:31 42.66352 -80.02072 13765 ft 314 kts 198°
2026-04-26 21:31 42.64272 -80.02958 14142 ft 318 kts 198°
2026-04-26 21:32 42.62161 -80.03856 14520 ft 321 kts 198°
2026-04-26 21:32 42.60024 -80.04765 14900 ft 324 kts 198°
2026-04-26 21:32 42.57877 -80.05676 15277 ft 326 kts 198°
2026-04-26 21:32 42.55698 -80.06601 15656 ft 329 kts 198°
2026-04-26 21:33 42.53516 -80.07526 16025 ft 332 kts 198°
2026-04-26 21:33 42.51312 -80.08461 16327 ft 337 kts 198°
2026-04-26 21:33 42.49056 -80.09416 16636 ft 342 kts 198°
2026-04-26 21:33 42.46798 -80.10372 16941 ft 346 kts 198°
2026-04-26 21:34 42.44488 -80.11349 17248 ft 351 kts 198°
2026-04-26 21:34 42.42131 -80.12345 17557 ft 356 kts 198°
2026-04-26 21:34 42.39769 -80.13342 17863 ft 361 kts 198°
2026-04-26 21:34 42.37380 -80.14349 18168 ft 365 kts 198°
2026-04-26 21:35 42.34943 -80.15376 18474 ft 370 kts 198°
2026-04-26 21:35 42.32448 -80.16428 18784 ft 375 kts 198°
2026-04-26 21:35 42.29964 -80.17473 19089 ft 380 kts 198°
2026-04-26 21:35 42.27440 -80.18534 19394 ft 384 kts 198°
2026-04-26 21:36 42.24858 -80.19619 19703 ft 389 kts 198°
2026-04-26 21:36 42.22304 -80.20691 20004 ft 394 kts 198°
2026-04-26 21:36 42.19660 -80.21800 20313 ft 399 kts 198°
2026-04-26 21:36 42.17014 -80.22909 20617 ft 403 kts 198°
2026-04-26 21:37 42.14334 -80.24031 20920 ft 406 kts 198°
2026-04-26 21:37 42.11658 -80.25150 21218 ft 407 kts 198°
2026-04-26 21:37 42.08931 -80.26290 21521 ft 409 kts 198°
2026-04-26 21:37 42.06234 -80.27416 21820 ft 411 kts 197°
2026-04-26 21:38 42.03439 -80.28337 22112 ft 413 kts 189°
2026-04-26 21:38 42.00600 -80.28590 22411 ft 414 kts 179°
2026-04-26 21:38 41.97731 -80.28177 22714 ft 416 kts 170°
2026-04-26 21:38 41.94910 -80.27478 23018 ft 418 kts 170°
2026-04-26 21:39 41.92038 -80.26759 23319 ft 420 kts 169°
2026-04-26 21:39 41.89154 -80.26025 23621 ft 422 kts 169°
2026-04-26 21:39 41.86297 -80.25294 23919 ft 424 kts 169°
2026-04-26 21:39 41.83402 -80.24551 24220 ft 426 kts 169°
2026-04-26 21:40 41.80485 -80.23802 24522 ft 428 kts 169°
2026-04-26 21:40 41.77593 -80.23059 24820 ft 430 kts 169°
2026-04-26 21:40 41.74661 -80.22306 25120 ft 432 kts 169°
2026-04-26 21:40 41.71690 -80.21544 25424 ft 434 kts 169°
2026-04-26 21:41 41.68758 -80.20792 25721 ft 436 kts 169°
2026-04-26 21:41 41.65765 -80.20026 26024 ft 438 kts 169°
2026-04-26 21:41 41.62778 -80.19261 26325 ft 440 kts 169°
2026-04-26 21:41 41.59798 -80.18500 26624 ft 442 kts 169°
2026-04-26 21:42 41.56750 -80.17721 26928 ft 444 kts 169°
2026-04-26 21:42 41.53760 -80.16958 27225 ft 446 kts 169°
2026-04-26 21:42 41.50697 -80.16177 27527 ft 447 kts 169°
2026-04-26 21:42 41.47675 -80.15407 27824 ft 449 kts 169°
2026-04-26 21:43 41.44590 -80.14623 28126 ft 450 kts 169°
2026-04-26 21:43 41.41550 -80.13850 28423 ft 451 kts 169°
2026-04-26 21:43 41.38474 -80.13068 28722 ft 452 kts 169°
2026-04-26 21:43 41.35382 -80.12283 29021 ft 453 kts 169°
2026-04-26 21:44 41.32300 -80.11502 29319 ft 454 kts 169°
2026-04-26 21:44 41.29173 -80.10710 29620 ft 455 kts 169°
2026-04-26 21:44 41.26092 -80.09930 29916 ft 455 kts 169°
2026-04-26 21:44 41.22987 -80.09146 30214 ft 455 kts 169°
2026-04-26 21:45 41.19912 -80.08369 30508 ft 455 kts 169°
2026-04-26 21:45 41.16810 -80.07586 30804 ft 454 kts 169°
2026-04-26 21:45 41.13726 -80.06809 31098 ft 452 kts 169°
2026-04-26 21:45 41.10651 -80.06034 31391 ft 451 kts 169°
2026-04-26 21:46 41.07584 -80.05263 31684 ft 448 kts 169°
2026-04-26 21:46 41.04565 -80.04504 31972 ft 445 kts 169°
2026-04-26 21:46 41.01540 -80.03744 32261 ft 442 kts 169°
2026-04-26 21:46 40.98547 -80.02992 32549 ft 438 kts 169°
2026-04-26 21:47 40.95584 -80.02248 32834 ft 433 kts 169°
2026-04-26 21:47 40.92652 -80.01514 33118 ft 428 kts 169°
2026-04-26 21:47 40.89712 -80.00778 33404 ft 422 kts 169°
2026-04-26 21:47 40.86859 -80.00065 33684 ft 415 kts 169°
2026-04-26 21:48 40.84005 -79.99352 33966 ft 408 kts 169°
2026-04-26 21:48 40.81268 -79.98668 34239 ft 400 kts 169°
2026-04-26 21:48 40.78572 -79.97995 34510 ft 391 kts 169°
2026-04-26 21:48 40.75961 -79.97343 34775 ft 381 kts 169°
2026-04-26 21:49 40.73378 -79.96699 34988 ft 371 kts 169°
2026-04-26 21:49 40.70882 -79.96079 34972 ft 366 kts 169°
2026-04-26 21:49 40.66001 -79.94864 34979 ft 352 kts 169°
2026-04-26 21:50 40.61298 -79.93697 34973 ft 337 kts 169°
2026-04-26 21:50 40.56816 -79.92584 34946 ft 319 kts 169°
2026-04-26 21:51 40.52600 -79.91541 34521 ft 308 kts 169°
2026-04-26 21:51 40.50435 -79.91007 33185 ft 333 kts 169°
2026-04-26 21:51 40.48153 -79.90440 32149 ft 342 kts 170°
2026-04-26 21:52 40.45890 -79.89883 32034 ft 321 kts 169°
2026-04-26 21:52 40.43776 -79.89360 32021 ft 303 kts 169°
2026-04-26 21:52 40.41710 -79.88852 31360 ft 310 kts 169°
2026-04-26 21:52 40.39555 -79.88321 30439 ft 322 kts 169°
2026-04-26 21:53 40.37370 -79.87783 30006 ft 317 kts 169°
2026-04-26 21:53 40.35257 -79.87264 29933 ft 302 kts 169°
2026-04-26 21:53 40.33219 -79.86762 29593 ft 299 kts 169°
2026-04-26 21:53 40.31184 -79.86264 28949 ft 306 kts 169°
2026-04-26 21:54 40.29084 -79.85747 28405 ft 308 kts 169°
2026-04-26 21:54 40.27010 -79.85237 28184 ft 299 kts 169°
2026-04-26 21:54 40.25004 -79.84745 27922 ft 293 kts 170°
2026-04-26 21:54 40.22991 -79.84251 27460 ft 296 kts 170°
2026-04-26 21:55 40.20991 -79.83762 26995 ft 297 kts 169°
2026-04-26 21:55 40.18970 -79.83268 26690 ft 293 kts 169°
2026-04-26 21:55 40.16999 -79.82785 26439 ft 288 kts 170°
2026-04-26 21:55 40.15021 -79.82301 26053 ft 288 kts 169°
2026-04-26 21:56 40.13083 -79.81827 25667 ft 289 kts 169°
2026-04-26 21:56 40.11093 -79.81345 25358 ft 286 kts 169°
2026-04-26 21:56 40.09177 -79.80875 25088 ft 283 kts 169°
2026-04-26 21:56 40.07251 -79.80405 24745 ft 283 kts 169°
2026-04-26 21:57 40.05313 -79.79932 24419 ft 282 kts 169°
2026-04-26 21:57 40.03395 -79.79466 24125 ft 283 kts 169°
2026-04-26 21:57 40.01493 -79.79002 24303 ft 278 kts 169°
2026-04-26 21:57 39.99557 -79.78532 24099 ft 291 kts 169°
2026-04-26 21:58 39.97529 -79.78040 23832 ft 307 kts 169°
2026-04-26 21:58 39.95372 -79.77517 23559 ft 324 kts 169°
2026-04-26 21:58 39.93095 -79.76965 23279 ft 342 kts 169°
2026-04-26 21:58 39.90709 -79.76388 22998 ft 361 kts 169°
2026-04-26 21:59 39.88150 -79.75770 22710 ft 380 kts 169°
2026-04-26 21:59 39.85511 -79.75132 22692 ft 391 kts 169°
2026-04-26 21:59 39.82833 -79.74483 22711 ft 403 kts 169°
2026-04-26 21:59 39.80022 -79.73803 22713 ft 415 kts 169°
2026-04-26 22:00 39.77166 -79.73113 22712 ft 427 kts 169°
2026-04-26 22:00 39.74198 -79.72396 22712 ft 440 kts 169°
2026-04-26 22:00 39.71140 -79.71658 22712 ft 453 kts 169°
2026-04-26 22:00 39.67980 -79.70897 22711 ft 467 kts 169°
2026-04-26 22:01 39.64759 -79.70121 22710 ft 479 kts 169°
2026-04-26 22:01 39.61442 -79.69323 22702 ft 483 kts 169°
2026-04-26 22:01 39.58176 -79.68537 22644 ft 481 kts 169°
2026-04-26 22:01 39.54908 -79.67752 22478 ft 469 kts 169°
2026-04-26 22:02 39.51761 -79.66997 22605 ft 462 kts 169°
2026-04-26 22:02 39.48561 -79.66229 22869 ft 469 kts 169°
2026-04-26 22:02 39.45341 -79.65458 23128 ft 475 kts 169°
2026-04-26 22:02 39.42072 -79.64676 23382 ft 477 kts 169°
2026-04-26 22:03 39.38827 -79.63900 23630 ft 478 kts 169°
2026-04-26 22:03 39.35582 -79.63125 23879 ft 480 kts 169°
2026-04-26 22:03 39.32279 -79.62336 24132 ft 482 kts 169°
2026-04-26 22:03 39.29000 -79.61555 24382 ft 483 kts 169°
2026-04-26 22:04 39.25735 -79.60777 24627 ft 482 kts 169°
2026-04-26 22:04 39.22420 -79.59988 24876 ft 481 kts 169°
2026-04-26 22:04 39.19132 -79.59206 25123 ft 480 kts 169°
2026-04-26 22:04 39.15892 -79.58437 25368 ft 480 kts 169°
2026-04-26 22:05 39.12610 -79.57658 25616 ft 480 kts 169°
2026-04-26 22:05 39.09346 -79.56884 25863 ft 479 kts 169°
2026-04-26 22:05 39.06085 -79.56111 26109 ft 479 kts 169°
2026-04-26 22:05 39.02814 -79.55338 26357 ft 478 kts 169°
2026-04-26 22:06 38.99568 -79.54570 26603 ft 478 kts 169°
2026-04-26 22:06 38.96299 -79.53798 26851 ft 477 kts 169°
2026-04-26 22:06 38.93081 -79.53038 27095 ft 477 kts 169°
2026-04-26 22:06 38.89813 -79.52268 27344 ft 476 kts 169°
2026-04-26 22:07 38.86573 -79.51505 27590 ft 476 kts 169°
2026-04-26 22:07 38.83335 -79.50743 27837 ft 475 kts 169°
2026-04-26 22:07 38.80088 -79.49979 28084 ft 475 kts 169°
2026-04-26 22:07 38.76850 -79.49219 28331 ft 474 kts 169°
2026-04-26 22:08 38.73617 -79.48460 28578 ft 474 kts 169°
2026-04-26 22:08 38.70401 -79.47707 28824 ft 473 kts 169°
2026-04-26 22:08 38.67175 -79.46950 29071 ft 473 kts 169°
2026-04-26 22:08 38.63966 -79.46200 29316 ft 472 kts 169°
2026-04-26 22:09 38.60740 -79.45445 29564 ft 472 kts 169°
2026-04-26 22:09 38.57538 -79.44697 29809 ft 471 kts 169°
2026-04-26 22:09 38.54290 -79.43938 30059 ft 471 kts 169°
2026-04-26 22:09 38.51095 -79.43194 30304 ft 470 kts 169°
2026-04-26 22:10 38.47918 -79.42453 30548 ft 469 kts 169°
2026-04-26 22:10 38.44695 -79.41703 30797 ft 469 kts 169°
2026-04-26 22:10 38.41526 -79.40966 31041 ft 468 kts 169°
2026-04-26 22:10 38.38318 -79.40221 31289 ft 468 kts 169°
2026-04-26 22:11 38.35134 -79.39481 31535 ft 467 kts 169°
2026-04-26 22:11 38.31940 -79.38741 31782 ft 467 kts 169°
2026-04-26 22:11 38.28770 -79.38006 32027 ft 466 kts 169°
2026-04-26 22:11 38.25599 -79.37271 32272 ft 465 kts 169°
2026-04-26 22:12 38.22443 -79.36541 32515 ft 464 kts 169°
2026-04-26 22:12 38.19248 -79.35802 32762 ft 462 kts 169°
2026-04-26 22:12 38.16117 -79.35079 33004 ft 460 kts 169°
2026-04-26 22:12 38.13005 -79.34361 33244 ft 457 kts 170°
2026-04-26 22:13 38.09884 -79.33642 33485 ft 454 kts 170°
2026-04-26 22:13 38.06791 -79.32928 33725 ft 451 kts 170°
2026-04-26 22:13 38.03777 -79.32234 33960 ft 447 kts 170°
2026-04-26 22:13 38.00717 -79.31531 34199 ft 442 kts 170°
2026-04-26 22:14 37.97705 -79.30839 34435 ft 437 kts 170°
2026-04-26 22:14 37.94775 -79.30166 34666 ft 431 kts 170°
2026-04-26 22:14 37.91822 -79.29489 34900 ft 425 kts 170°
2026-04-26 22:14 37.88959 -79.28832 34995 ft 421 kts 170°
2026-04-26 22:15 37.83258 -79.27527 34994 ft 414 kts 170°
2026-04-26 22:15 37.77679 -79.26251 34993 ft 406 kts 170°
2026-04-26 22:16 37.72173 -79.24994 34993 ft 399 kts 170°
2026-04-26 22:16 37.66810 -79.23772 34992 ft 390 kts 170°
2026-04-26 22:17 37.61552 -79.22575 34991 ft 381 kts 170°
2026-04-26 22:17 37.56403 -79.21403 34989 ft 371 kts 170°
2026-04-26 22:18 37.51430 -79.20274 34987 ft 359 kts 170°
2026-04-26 22:18 37.46625 -79.19186 34982 ft 346 kts 170°
2026-04-26 22:19 37.42018 -79.18141 34963 ft 330 kts 170°